Notices

What's New in latest Release from April 7th, 2021:

- Updated Glossary, including Speed of Maximum Gust, and Total Hourly Precipitation

- Updated national and regional climate services offices contacts and prices information

- Addition of station inventory lists for 1981-2010, 1971-2000, and 1961-1990 Normals.

If you haven't already, please take our survey and provide feedback about our website: https://eccc.sondage-survey.ca/f/LanguageSelection.aspx?s=442ca660-fcf1-47c0-95a9-59707d6fd709

Hourly Data Report for March 21, 2004

SHERBROOKE A
QUEBEC

45°26'00.000" N
71°41'00.000" W
241.40 m
7028124
71610
YSC

Download Data

Hourly Data (March 2004)
Hourly Data Report for March 21, 2004
TIME
LST
Temp Definition
°C
Dew Point Definition
°C
Rel Hum Definition
%
Precip. Amount Definition
mm

Wind Dir Definition
10's deg

Wind Spd Definition
km/h
Visibility Definition
km
Stn Press Definition
kPa
Hmdx Definition


Wind Chill Definition


Weather Definition


00:00 -0.5 -1.5 93   15 4 5.6 97.47   -2 Snow
01:00 -0.8 -1.3 96     0 6.4 97.41     Snow
02:00 -0.8 -1.3 96     0 4.0 97.31      
03:00 -0.9 -1.2 98     0 3.2 97.24     Snow
04:00 -0.3 -0.6 98   20 4 3.2 97.23   -2  
05:00 0.0 -0.3 98   23 4 5.6 97.20   -1  
06:00 0.1 -0.1 99   20 6 2.4 97.15      
07:00 0.3 0.2 99   21 6 3.1 97.12      
08:00 0.5 0.3 99   22 6 1.6 97.10     Snow,Fog
09:00 0.6 0.4 99   23 9 1.2 97.10     Snow,Ice Pellets,Fog
10:00 1.1 0.6 96   26 11 4.0 97.04     Snow,Ice Pellets,Fog
11:00 0.8 -0.3 92   28 15 16.1 97.05     Ice Pellets
12:00 0.6 -0.9 90   29 17 19.3 97.06     Ice Pellets
13:00 0.2 -1.2 90   27 15 19.3 97.10     Ice Pellets
14:00 0.2 -1.3 90   30 13 16.1 97.09     Snow,Snow Grains
15:00 0.3 -1.4 88   28 17 12.9 97.15     Snow
16:00 -0.2 -2.5 84   29 20 4.0 97.23   -5 Snow
17:00 -2.6 -4.1 89   29 30 2.4 97.37   -10 Snow
18:00 -3.7 -6.0 84   29 28 6.4 97.51   -11 Snow
19:00 -4.8 -7.0 85   29 28 4.8 97.62   -12 Snow
20:00 -5.8 -7.1 91   29 15 1.0 97.75   -12 Snow
21:00 -7.1 -9.2 85   31 26 1.3 97.85   -15 Snow
22:00 -8.5 -10.7 84   29 35 6.4 97.93   -18 Snow
23:00 -9.4 -12.0 81   31 13 12.9 98.02   -15 Snow

Notes on Data Quality.

Legend

  • E = Estimated
  • M = Missing
  • NA = Not Available*
  • [empty] = Indicates an unobserved value
Date modified: